Location: Newark
(17.1333°N, 61.8333°W)
Time: 21:19:31
(UTC+00:00)

Envisat - Pass Details

Date: 30 July 2019
Orbit: 764 x 766 km, 98.1° (Epoch: 24 August)

Event Time Altitude Azimuth Distance (km) Brightness Sun altitude
Rises 23:05:18 0° 181° (S) 3,220 6.0 -6.3°
Reaches altitude 10° 23:07:41 10° 188° (S) 2,295 5.3 -6.8°
Maximum altitude 23:12:30 45° 259° (W) 1,040 4.2 -7.9°
Drops below altitude 10° 23:17:19 10° 332° (NNW) 2,298 6.3 -8.9°
Sets 23:19:44 0° 338° (NNW) 3,225 7.0 -9.5°
